Baker, MT

6:56 PM MDT on March 28, 2017 (GMT -0600)
Baker Municipal

Weather History for KBHK - September, 2013

Change the Weather History Date:

Thursday, September 19, 2013

  Actual Average Record
Temperature  
Mean Temperature 46 °F -  
Max Temperature 51 °F 94 °F 88 °F (2008)
Min Temperature 41 °F 52 °F 27 °F (2006)
Degree Days  
Heating Degree Days 18    
Moisture  
Dew Point 41 °F    
Average Humidity 77    
Maximum Humidity 87    
Minimum Humidity 61    
Precipitation  
Precipitation 0.01 in - - ()
Sea Level Pressure  
Sea Level Pressure 30.05 in    
Wind  
Wind Speed 18 mph (WNW)    
Max Wind Speed 28 mph    
Max Gust Speed 33 mph    
Visibility 9 miles    
Events Rain    
Averages and records for this station are not official NWS values.
T = Trace of Precipitation, MM = Missing Value Source: NWS Daily Summary

Daily Weather History Graph

Daily Weather History Graph

Search for Another Location

Airport or City:

Trip Planner

Search our weather history database for the weather conditions in past years. The results will help you decide how hot, cold, wet, or windy it might be!

Date:

Astronomy

Sep. 19, 2013 Rise Set
Actual Time 6:40 AM MDT 7:00 PM MDT
Civil Twilight 6:10 AM MDT 7:30 PM MDT
Nautical Twilight 5:34 AM MDT 8:05 PM MDT
Astronomical Twilight 4:58 AM MDT 8:42 PM MDT
Moon 6:54 PM MDT (9/19) 6:55 AM MDT (9/19)
Length of Visible Light 13h 19m
Length of Day
12h 19m
Full, 100% of the Moon is Illuminated
Sep 19
Full
Sep 26
Last Quarter
Oct 4
New
Oct 11
First Quarter
Oct 18
Full

Hourly Weather History & Observations

Time (MDT) Temp. Windchill Dew Point Humidity Pressure Visibility Wind Dir Wind Speed Gust Speed Precip Events Conditions
12:51 AM 48.9 °F - 43.0 °F 80% 29.86 in 10.0 mi West 10.4 mph - N/A   Clear
1:51 AM 48.0 °F - 43.0 °F 83% 29.87 in 10.0 mi West 11.5 mph - N/A   Clear
2:51 AM 48.9 °F - 42.1 °F 77% 29.88 in 10.0 mi West 16.1 mph - N/A   Clear
3:51 AM 48.0 °F - 37.0 °F 66% 29.90 in 10.0 mi West 20.7 mph 28.8 mph N/A   Clear
4:51 AM 46.9 °F - 39.0 °F 74% 29.91 in 10.0 mi West 23.0 mph 32.2 mph 0.01 in   Scattered Clouds
4:57 AM 46.4 °F 38.3 °F 39.2 °F 76% 29.95 in 10.0 mi West 23.0 mph 32.2 mph N/A   Mostly Cloudy
5:51 AM 46.9 °F - 39.0 °F 74% 29.93 in 10.0 mi West 24.2 mph 29.9 mph N/A   Overcast
6:35 AM 46.4 °F 38.3 °F 42.8 °F 87% 29.98 in 8.0 mi West 23.0 mph - 0.00 in Rain Light Rain
6:51 AM 46.0 °F 37.6 °F 42.1 °F 86% 29.97 in 10.0 mi West 24.2 mph 31.1 mph 0.00 in Rain Light Rain
7:02 AM 46.4 °F 37.5 °F 42.8 °F 87% 29.98 in 2.5 mi West 27.6 mph 33.4 mph 0.00 in Rain Light Rain
7:13 AM 48.2 °F - 44.6 °F 87% 29.99 in 5.0 mi WNW 24.2 mph 33.4 mph 0.00 in Rain Light Rain
7:39 AM 48.2 °F - 44.6 °F 87% 30.01 in 8.0 mi NW 24.2 mph 31.1 mph 0.00 in   Overcast
7:45 AM 46.4 °F 37.7 °F 42.8 °F 87% 30.01 in 4.0 mi NW 26.5 mph 33.4 mph 0.00 in Rain Light Rain
7:51 AM 46.9 °F - 43.0 °F 86% 30.02 in 4.0 mi NW 25.3 mph 33.4 mph 0.00 in Rain Light Rain
7:58 AM 46.4 °F 38.3 °F 42.8 °F 87% 30.02 in 10.0 mi NW 23.0 mph 33.4 mph 0.00 in   Overcast
8:13 AM 48.2 °F - 42.8 °F 82% 30.03 in 10.0 mi NW 16.1 mph 24.2 mph 0.00 in   Overcast
8:23 AM 46.4 °F 39.5 °F 42.8 °F 87% 30.03 in 10.0 mi NW 17.3 mph 26.5 mph 0.00 in   Overcast
8:51 AM 48.0 °F - 43.0 °F 83% 30.04 in 10.0 mi NW 21.9 mph 31.1 mph 0.00 in   Overcast
9:04 AM 48.2 °F - 42.8 °F 82% 30.04 in 10.0 mi NW 20.7 mph 27.6 mph N/A   Overcast
9:14 AM 48.2 °F - 42.8 °F 82% 30.05 in 10.0 mi WNW 19.6 mph 27.6 mph N/A   Overcast
9:31 AM 50.0 °F - 44.6 °F 82% 30.05 in 10.0 mi WNW 18.4 mph 25.3 mph N/A   Overcast
9:48 AM 48.2 °F - 41.0 °F 76% 30.06 in 10.0 mi WNW 17.3 mph 33.4 mph N/A   Mostly Cloudy
9:51 AM 48.9 °F - 41.0 °F 74% 30.06 in 10.0 mi WNW 20.7 mph 33.4 mph N/A   Overcast
10:12 AM 46.4 °F 39.0 °F 42.8 °F 87% 30.06 in 3.0 mi WNW 19.6 mph 26.5 mph 0.00 in Rain Light Rain
10:41 AM 46.4 °F 39.5 °F 42.8 °F 87% 30.07 in 8.0 mi NW 17.3 mph 27.6 mph 0.00 in Rain Light Rain
10:51 AM 46.9 °F - 42.1 °F 83% 30.07 in 10.0 mi WNW 20.7 mph 31.1 mph 0.00 in Rain Light Rain
11:22 AM 50.0 °F - 41.0 °F 71% 30.09 in 10.0 mi NW 20.7 mph 27.6 mph 0.00 in   Overcast
11:51 AM 48.9 °F - 39.9 °F 71% 30.10 in 10.0 mi WNW 18.4 mph 24.2 mph 0.00 in   Overcast
12:51 PM 48.9 °F - 39.0 °F 69% 30.12 in 10.0 mi WNW 12.7 mph 23.0 mph N/A   Overcast
1:51 PM 48.9 °F - 39.0 °F 69% 30.13 in 10.0 mi WNW 18.4 mph 25.3 mph N/A   Overcast
2:31 PM 50.0 °F - 37.4 °F 62% 30.12 in 10.0 mi WNW 18.4 mph 27.6 mph N/A   Overcast
2:40 PM 48.2 °F - 37.4 °F 66% 30.12 in 10.0 mi WNW 18.4 mph 24.2 mph N/A   Overcast
2:51 PM 48.9 °F - 37.9 °F 66% 30.13 in 10.0 mi WNW 18.4 mph 27.6 mph N/A   Overcast
3:08 PM 50.0 °F - 39.2 °F 66% 30.12 in 10.0 mi WNW 18.4 mph 24.2 mph N/A   Overcast
3:22 PM 48.2 °F - 37.4 °F 66% 30.11 in 10.0 mi WNW 17.3 mph - N/A   Overcast
3:51 PM 51.1 °F - 39.9 °F 66% 30.12 in 10.0 mi WNW 16.1 mph 23.0 mph N/A   Overcast
4:51 PM 50.0 °F - 37.9 °F 63% 30.12 in 10.0 mi WNW 13.8 mph 27.6 mph N/A   Overcast
5:51 PM 51.1 °F - 37.9 °F 61% 30.12 in 10.0 mi NW 13.8 mph 24.2 mph N/A   Overcast
6:51 PM 51.1 °F - 39.0 °F 63% 30.12 in 10.0 mi NW 10.4 mph - N/A   Overcast
7:51 PM 46.0 °F 42.5 °F 37.9 °F 73% 30.13 in 10.0 mi West 6.9 mph - N/A   Clear
8:51 PM 43.0 °F 38.2 °F 37.0 °F 80% 30.14 in 10.0 mi West 8.1 mph - N/A   Clear
9:51 PM 43.0 °F 38.2 °F 37.0 °F 80% 30.14 in 10.0 mi West 8.1 mph - N/A   Clear
10:51 PM 42.1 °F 36.1 °F 37.0 °F 82% 30.15 in 10.0 mi West 10.4 mph - N/A   Clear
11:51 PM 41.0 °F 37.1 °F 36.0 °F 82% 30.15 in 10.0 mi West 5.8 mph - N/A   Clear